Regional Weather Roundup
Issued by NWS

Home | Current Version | Previous Version | Text Only | Print | Product List | Glossary Off
Versions: 1 2 3 4 5 6 7 8 9 10 11 12 13 14 15 16 17 18 19 20 21 22 23 24 25 26 27 28 29 30 31 32 33 34 35 36 37 38 39 40 41 42 43 44 45 46 47 48 49 50

000
ASUS45 KCYS 290110
RWRWY

WYOMING REGIONAL WEATHER ROUNDUP
NATIONAL WEATHER SERVICE CHEYENNE WY
700 PM MDT THU MAY 28 2015

NOTE:  "FAIR" INDICATES FEW OR NO CLOUDS BELOW 12,000 FEET
WITH NO SIGNIFICANT WEATHER AND/OR OBSTRUCTIONS TO VISIBILITY.

WYZ001-290200-
YELLOWSTONE NATIONAL PARK

CITY           SKY/WX    TMP DP  RH WIND       PRES   REMARKS
LK YELLOWSTONE   N/A     45  38  76 MISG      30.25R
W YELLOWSTONE  NOT AVBL

$$
WYZ002>013-054>058-071-098>099-290200-
NORTHERN WYOMING

CITY           SKY/WX    TMP DP  RH WIND       PRES   REMARKS
JACKSON        CLOUDY    48  43  81 S8        30.20R
CODY           CLOUDY    54  45  71 N13       30.14R
GREYBULL       FAIR      63  42  46 NW23      30.04R
WORLAND        PTSUNNY   62  46  55 NW18      30.05R
SHERIDAN       FAIR      59  46  62 N5        30.08R
BUFFALO        CLOUDY    55  46  71 N18G26    30.10R
GILLETTE       PTSUNNY   57  48  72 N10       30.04S
HULETT         FAIR      59  52  77 SW3       30.02F
NEWCASTLE      FAIR      59  46  63 NW10      30.00S

$$
WYZ014>020-022>026-101>103-290200-
CENTRAL WYOMING

CITY           SKY/WX    TMP DP  RH WIND       PRES   REMARKS
BIG PINEY      LGT RAIN  49  39  68 NE20G31   30.19R
PINEDALE       FAIR      46  41  81 NW9       30.20R
DUBOIS         FAIR      50  32  50 W13G18    30.16R
LANDER         CLOUDY    54  45  71 N14       30.09R
RIVERTON       LGT RAIN  51  43  74 N16       30.12R
CASPER         CLOUDY    52  41  66 N14       30.08R
DOUGLAS        FAIR      61  44  53 N13G21    30.04R

$$
WYZ021-027>030-104>119-290200-
SOUTHERN WYOMING

CITY           SKY/WX    TMP DP  RH WIND       PRES   REMARKS
EVANSTON       FAIR      52  37  56 W7        30.22S
KEMMERER       FAIR      50  36  57 W13       30.21S
FORT BRIDGER   CLEAR     52  41  66 W12       30.24S
ROCK SPRINGS   FAIR      48  39  71 SW12      30.19S
DIXON          FAIR      51  40  64 SW8       30.21S
RAWLINS        FAIR      53  39  59 SW17      30.15S
SARATOGA       MOCLDY    48  39  71 W10       30.19R
LARAMIE        FAIR      54  32  43 W14       30.11S
CHEYENNE       FAIR      62  36  37 NW20G31   30.04R
TORRINGTON     FAIR      66  46  48 N29       29.94R
PINE BLUFFS    FAIR      64  50  59 NE8       29.97S

$$


USA.gov is the U.S. government's official web portal to all federal, state and local government web resources and services.